Location: Sungai Ketit
(2.6833°N, 113.2333°E)
Time: 21:35:30
(UTC+00:00)

Cosmos 2278 Rocket - Pass Details

Date: 23 May 2024
Orbit: 840 x 845 km, 71.0° (Epoch: 19 June)

Event Time Altitude Azimuth Distance (km) Brightness Sun altitude
Rises 11:16:20 0° 24° (NNE) 3,384 5.3 -11.3°
Reaches altitude 10° 11:21:19 10° 62° (ENE) 2,452 4.2 -12.4°
Maximum altitude 11:22:21 11° 73° (ENE) 2,417 4.1 -12.7°
Enters shadow 11:22:40 10° 76° (ENE) 2,421 4.1 -12.7°
